Airport ICAO


13:56 UTC

32°C


An affordable passengers' Moving Map for your aircraft. Made for the iPad and the iPhone
More information here

LFMC Le Cannet


Le Luc FRANCE   


METAR LFMC 231330Z AUTO VRB02KT //// // ////// 32/15 Q1017 0h26min





NOTAMS

OPEN